Regional Weather Roundup
Issued by NWS Charleston, WV

Home | Current Version | Previous Version | Text Only | Print | Product List | Glossary On
Versions: 1 2 3 4 5 6 7 8 9 10 11 12 13 14 15 16 17 18 19 20 21 22 23 24 25 26 27 28 29 30 31 32 33 34 35 36 37 38 39 40 41 42 43 44 45 46 47 48 49 50
000
ASUS41 KRLX 051610
RWRRLX
West Virginia Regional Weather Roundup
National Weather Service Charleston WV
1200 PM EDT THU MAY 05 2016

Note: "fair" indicates few or no clouds below 12,000 feet with no
significant weather and/or obstructions to visibility.

WVZ003-051700-
Northern Panhandle of West Virginia

CITY           SKY/WX    TMP DP  RH WIND       PRES   REMARKS
WHEELING       CLOUDY    53  48  83 NW7       29.72S
$$

WVZ009-051700-
Northwest West Virginia

CITY           SKY/WX    TMP DP  RH WIND       PRES   REMARKS
PARKERSBURG    CLOUDY    50  47  89 NW5       29.78S
$$

WVZ006-051700-
Western West Virginia

CITY           SKY/WX    TMP DP  RH WIND       PRES   REMARKS
HUNTINGTON     CLOUDY    52  38  58 N8        29.78S
$$

WVZ015-051700-
West Central West Virginia

CITY           SKY/WX    TMP DP  RH WIND       PRES   REMARKS
CHARLESTON     CLOUDY    51  40  65 VRB7      29.76S
$$

WVZ022-031-051700-
North Central West Virginia

CITY           SKY/WX    TMP DP  RH WIND       PRES   REMARKS
CLARKSBURG     LGT RAIN  52  49  89 NW6       29.70S
MORGANTOWN     CLOUDY    53  47  79 CALM      29.71S
$$

WVZ025-035-042-045-051700-
Southern West Virginia

CITY           SKY/WX    TMP DP  RH WIND       PRES   REMARKS
BECKLEY        LGT RAIN  42  36  79 NW9       29.72S
LOGAN          NOT AVBL
BLUEFIELD      LGT RAIN  39  35  86 NW9       29.71S
LEWISBURG      LGT RAIN  43  40  90 NW6       29.69R
$$

WVZ047-051700-
Northern Mountains of West Virginia

CITY           SKY/WX    TMP DP  RH WIND       PRES   REMARKS
ELKINS         LGT RAIN  49  45  86 N7        29.69S
$$

WVZ052-051700-
Eastern Panhandle of West Virginia

CITY           SKY/WX    TMP DP  RH WIND       PRES   REMARKS
MARTINSBURG    CLOUDY    53  47  79 N9        29.68S
PETERSBURG     LGT RAIN  52  50  91 NW3       29.69S
$$



USA.gov is the U.S. government's official web portal to all federal, state and local government web resources and services.